Location: *
(38.4303°S, 157.0822°W)
Time: 13:33:21
(UTC+00:00)

USA 307 - Pass Details

Date: 21 May 2024
Orbit: 495 x 502 km, 54.0° (Epoch: 10 March)

Event Time Altitude Azimuth Distance (km) Brightness Sun altitude
Exits shadow 16:37:57 14° 244° (WSW) 1,446 4.3 -10.1°
Maximum altitude 16:39:55 20° 207° (SSW) 1,220 4.2 -9.7°
Drops below altitude 10° 16:42:51 10° 159° (SSE) 1,726 5.4 -9.2°
Sets 16:45:32 0° 141° (SE) 2,610 6.5 -8.7°
